This is the latest recevied weather packets stored in our database for station/object KG7FOQ-13. If no packets are shown the sender has not sent any weather packets the latest 10 day(s).
| Time | Temp. | Humidity | Pressure | Rain* | Wind** | Luminosity | Snow |
|---|---|---|---|---|---|---|---|
| 1777645540 | 7.78° C | 60% | 1022 hPa | 0 mm | - | - | - |
| 1777645240 | 7.22° C | 63% | 1022 hPa | 0 mm | - | - | - |
| 1777644940 | 6.67° C | 64% | 1022 hPa | 0 mm | - | - | - |
| 1777644639 | 5.56° C | 65% | 1021.9 hPa | 0 mm | - | - | - |
| 1777644338 | 5.56° C | 68% | 1021.8 hPa | 0 mm | - | - | - |
| 1777644038 | 5° C | 69% | 1021.8 hPa | 0 mm | - | - | - |
| 1777643737 | 4.44° C | 71% | 1021.8 hPa | 0 mm | - | - | - |
| 1777643436 | 4.44° C | 72% | 1021.8 hPa | 0 mm | - | - | - |
| 1777643134 | 3.89° C | 73% | 1021.8 hPa | 0 mm | - | - | - |
| 1777642834 | 3.33° C | 74% | 1021.7 hPa | 0 mm | - | - | - |
| 1777642533 | 3.33° C | 75% | 1021.7 hPa | 0 mm | - | - | - |
| 1777642233 | 2.78° C | 74% | 1021.6 hPa | 0 mm | - | - | - |
| 1777641932 | 2.78° C | 74% | 1021.6 hPa | 0 mm | - | - | - |
| 1777641630 | 2.22° C | 75% | 1021.6 hPa | 0 mm | - | - | - |
| 1777641029 | 1.11° C | 79% | 1021.4 hPa | 0 mm | - | - | - |
| 1777640728 | 1.11° C | 80% | 1021.4 hPa | 0 mm | - | - | - |
| 1777640428 | 0.56° C | 80% | 1021.4 hPa | 0 mm | - | - | - |
| 1777640127 | 0.56° C | 80% | 1021.4 hPa | 0 mm | - | - | - |
| 1777639827 | 1.11° C | 80% | 1021.2 hPa | 0 mm | - | - | - |
| 1777639526 | 0.56° C | 80% | 1021.2 hPa | 0 mm | - | - | - |
| 1777639226 | 1.11° C | 81% | 1021.1 hPa | 0 mm | - | - | - |
| 1777638925 | 1.67° C | 80% | 1021 hPa | 0 mm | - | - | - |
| 1777638625 | 1.11° C | 81% | 1021 hPa | 0 mm | - | - | - |
| 1777638324 | 1.11° C | 81% | 1020.9 hPa | 0 mm | - | - | - |
| 1777638024 | 1.11° C | 81% | 1021 hPa | 0 mm | - | - | - |
* Rain latest hour (hover to see other rain measurements)
** Current wind speed in m/s (hover to see current wind gust speed)